リニア彗星

251P/LINEAR (2024)

English version
Home page
Updated on March 24, 2025

---------------------------------------------------------------------

・ プロフィール

・ 写真集

・ 軌道要素

Epoch 2024 Mar. 31.0 TT = JDT 2460400.5
T 2024 Feb. 13.23965 TT                                 Rudenko
q   1.7412667            (2000.0)            P               Q
n   0.14963965     Peri.   31.21611     -0.35985229     +0.89843536
a   3.5137559      Node   219.34142     -0.91678259     -0.39057224
e   0.5044429      Incl.   23.38692     -0.17325128     +0.20066697
P   6.59
>From 83 observations 2017 Apr. 2-2024 June 15, mean residual 0".5.
     Nongravitational parameters A1 = -0.04, A2 = -0.0925.

・ 光度変化

        m1 = 15.5 + 5 logΔ + 15.0 log r(t - 70)

---------------------------------------------------------------------

軌道要素はM.P.E.C. 2024-M41に掲載されたものです。
光度グラフはComet for Windowsで作成したものです。

---------------------------------------------------------------------

Copyright(C) Seiichi Yoshida (comet@aerith.net). All rights reserved.